Location: Killam
(52.7910°N, 111.8608°W)
Time: 16:18:38
(UTC+00:00)

Vanguard 2 Rocket - Pass Details

Date: 19 February 2026
Orbit: 553 x 3286 km, 32.9° (Epoch: 11 March)

Event Time Altitude Azimuth Distance (km) Brightness Sun altitude
Rises 23:07:45 0° 259° (W) 6,862 12.6 12.5°
Reaches altitude 10° 23:13:48 10° 249° (WSW) 5,471 12.8 11.8°
Maximum altitude 23:24:58 26° 203° (SSW) 3,411 10.9 10.4°
Drops below altitude 10° 23:32:41 10° 152° (SSE) 3,674 10.1 9.4°
Sets 23:35:48 0° 139° (SE) 4,287 10.3 9.0°
